Effective Sunday, March 17, 2024, the National Weather Service National Data Buoy Center will discontinue its Dial-A-Buoy Interactive Voice Response system. For more information, see Service Change Notice 24-06 (PDF).

Station DELD1 - 8551762 - Delaware City, DE Image indicating link to RSS feed of recent meteorological observations for station DELD1


Conditions at DELD1 as of
(11:30 pm EST on 02/21/2024)
0430 GMT on 02/22/2024:
     

Click on the graph icon in the table below to see a time series plot of the last five days of that observation.

5-day plot - Wind Direction Wind Direction (WDIR): E ( 90 deg true )
5-day plot - Wind Speed Wind Speed (WSPD): 5.1 kts
5-day plot - Wind Gust Wind Gust (GST): 5.1 kts
5-day plot - Atmospheric Pressure Atmospheric Pressure (PRES):30.26 in
5-day plot - Air Temperature Air Temperature (ATMP): 35.6 °F
5-day plot - Wind Chill Wind Chill (CHILL): 30.7 °F
5-day plot - Wind Speed at 10 Meters Wind Speed at 10 meters (WSPD10M): 5.8 kts
5-day plot - Wind Speed at 20 Meters Wind Speed at 20 meters (WSPD20M): 5.8 kts
5-day plot -  Wind Speed, Wind Gust and Atmospheric Pressure Combined plot of Wind Speed, Gust, and Air Pressure
NOS Water Level Observation Network Water Level
Previous observations
TIME
(EST)
5-day plot - Wind Direction
WDIR
 
5-day plot - Wind Speed
WSPD
kts
5-day plot - Wind Gust
GST
kts
5-day plot - Wave Height
WVHT
ft
5-day plot - Dominant Wave Period
DPD
sec
5-day plot - Average Wave Period
APD
sec
5-day plot - Mean Wave Direction
MWD
 
5-day plot - Atmospheric Pressure
PRES
in
5-day plot - Pressure Tendency
PTDY
in
5-day plot - Air Temperature
ATMP
°F
5-day plot - Water Temperature
WTMP
°F
5-day plot - Dew Point
DEWP
°F
5-day plot - Salinity
SAL
psu
5-day plot - Visibility
VIS
nmi
5-day plot - Tide (above MLLW)
TIDE
ft
2024-02-21 11:24 pm E 5.1 6.0----30.26- 35.6-----
2024-02-21 11:18 pmESE 5.1 6.0----30.26- 35.6-----
2024-02-21 11:12 pmESE 4.1 5.1----30.27- 35.6-----
2024-02-21 11:06 pm E 4.1 5.1----30.27- 35.6-----
2024-02-21 11:00 pm E 2.9 4.1----30.27-0.04 35.2-----
2024-02-21 10:54 pm E 2.9 4.1----30.28- 35.2-----
2024-02-21 10:48 pm E 2.9 4.1----30.28- 35.4-----
2024-02-21 10:42 pm E 2.9 5.1----30.28- 35.6-----
2024-02-21 10:36 pmESE 4.1 6.0----30.28- 36.0-----
2024-02-21 10:30 pmESE 5.1 7.0----30.28- 35.8-----
2024-02-21 10:24 pmESE 6.0 8.9----30.28- 36.0-----
2024-02-21 10:18 pmESE 6.0 8.0----30.28- 36.1-----
2024-02-21 10:12 pmESE 6.0 8.0----30.28- 36.1-----
2024-02-21 10:06 pmESE 8.0 9.9----30.28- 36.0-----
2024-02-21 10:00 pmESE 8.0 8.9----30.28-0.02 36.0-----
2024-02-21 09:54 pmESE 7.0 8.9----30.28- 36.1-----
2024-02-21 09:48 pm SE 7.0 8.9----30.29- 36.1-----
2024-02-21 09:42 pm SE 7.0 8.0----30.29- 36.1-----
2024-02-21 09:36 pm SE 8.0 9.9----30.29- 36.1-----
2024-02-21 09:30 pm SE 5.1 7.0----30.29- 36.1-----
2024-02-21 09:24 pmSSE 4.1 6.0----30.30- 35.6-----
2024-02-21 09:18 pmSSE 2.9 7.0----30.30- 36.0-----
2024-02-21 09:12 pm SE 5.1 8.0----30.30- 36.3-----
2024-02-21 09:06 pm SE 7.0 8.9----30.30- 36.5-----
2024-02-21 09:00 pm SE 7.0 8.9----30.29+0.00 36.5-----
2024-02-21 08:54 pm SE 6.0 8.0----30.30- 36.3-----
2024-02-21 08:48 pmSSE 4.1 5.1----30.31- 35.8-----
2024-02-21 08:42 pmSSE 2.9 4.1----30.32- 35.8-----
2024-02-21 08:36 pmSSE 2.9 4.1----30.32- 35.8-----
2024-02-21 08:30 pmSSE 2.9 6.0----30.32- 36.0-----
2024-02-21 08:24 pmSSE 4.1 8.0----30.31- 36.1-----
2024-02-21 08:18 pmSSE 5.1 8.9----30.31- 36.3-----
2024-02-21 08:12 pmSSE 7.0 8.9----30.30- 36.5-----
2024-02-21 08:06 pmSSE 6.0 8.9----30.31- 36.5-----
2024-02-21 08:00 pmSSE 6.0 9.9----30.31+0.01 36.5-----
2024-02-21 07:54 pmSSE 6.0 8.9----30.31- 36.5-----
2024-02-21 07:48 pmSSE 6.0 9.9----30.31- 36.7-----
2024-02-21 07:42 pmSSE 6.0 12.0----30.30- 36.9-----
2024-02-21 07:36 pmSSE 8.0 12.0----30.30- 37.0-----
2024-02-21 07:30 pmSSE 8.0 15.0----30.30- 37.2-----
2024-02-21 07:24 pmSSE 11.1 14.0----30.29- 37.6-----
2024-02-21 07:18 pmSSE 8.9 13.0----30.29- 37.8-----
2024-02-21 07:12 pmSSE 7.0 9.9----30.29- 37.8-----
2024-02-21 07:06 pm S 6.0 9.9----30.30- 37.8-----
2024-02-21 07:00 pm S 7.0 8.9----30.30+0.00 37.8-----
2024-02-21 06:54 pm S 7.0 9.9----30.30- 37.9-----
2024-02-21 06:48 pm S 6.0 8.9----30.30- 37.9-----
2024-02-21 06:42 pm S 6.0 11.1----30.30- 38.1-----
2024-02-21 06:36 pm S 7.0 11.1----30.30- 38.3-----
2024-02-21 06:30 pm S 6.0 11.1----30.30- 38.3-----
2024-02-21 06:24 pm S 6.0 11.1----30.29- 38.5-----
2024-02-21 06:00 pm S 5.1 8.9----30.29-0.03 38.8-----
2024-02-21 05:54 pm S 5.1 8.9----30.29- 39.0-----
2024-02-21 05:48 pm S 5.1 8.9----30.29- 39.2-----
2024-02-21 05:42 pm S 6.0 11.1----30.29- 39.4-----
2024-02-21 05:36 pm S 6.0 8.9----30.29- 39.6-----
2024-02-21 05:30 pmSSE 8.0 12.0----30.29- 39.9-----
2024-02-21 05:24 pm S 8.0 12.0----30.29- 40.3-----
2024-02-21 05:18 pmSSE 8.0 12.0----30.29- 40.6-----
2024-02-21 05:12 pmSSE 8.0 9.9----30.29- 41.4-----
2024-02-21 05:06 pmSSE 8.0 12.0----30.29- 41.7-----
2024-02-21 05:00 pm S 6.0 9.9----30.30-0.05 42.6-----
2024-02-21 04:54 pmSSE 6.0 8.9----30.30- 42.6-----
2024-02-21 04:48 pm S 5.1 7.0----30.30- 43.9-----
2024-02-21 04:42 pm S 5.1 7.0----30.30- 43.9-----
2024-02-21 04:36 pmSSE 5.1 8.0----30.30- 43.9-----
2024-02-21 04:30 pm S 5.1 7.0----30.31- 44.6-----
2024-02-21 04:24 pm SE 5.1 6.0----30.30- 43.5-----
2024-02-21 04:18 pmESE 5.1 6.0----30.31- 42.4-----
2024-02-21 04:12 pm SE 2.9 4.1----30.31- 43.0-----
2024-02-21 04:06 pmESE 1.9 2.9----30.31- 43.7-----
2024-02-21 04:00 pm- 0.0 1.0----30.31-0.07 45.3-----
2024-02-21 03:54 pmWNW 1.0 2.9----30.31- 44.4-----
2024-02-21 03:48 pmNNW 2.9 4.1----30.31- 43.7-----
2024-02-21 03:42 pmNNW 1.9 4.1----30.31- 43.3-----
2024-02-21 03:36 pmNNW 2.9 4.1----30.31- 43.2-----
2024-02-21 03:30 pmNNW 2.9 5.1----30.31- 43.2-----
2024-02-21 03:24 pm N 4.1 4.1----30.31- 43.0-----
2024-02-21 03:18 pmNNW 2.9 5.1----30.32- 43.0-----
2024-02-21 03:12 pmNNW 2.9 5.1----30.32- 42.8-----
2024-02-21 03:06 pm NW 1.9 4.1----30.32- 42.8-----
2024-02-21 03:00 pmNNW 2.9 5.1----30.32-0.10 42.4-----
2024-02-21 02:54 pmNNW 2.9 4.1----30.32- 42.4-----
2024-02-21 02:48 pmNNW 1.9 2.9----30.32- 42.4-----
2024-02-21 02:42 pmNNW 1.9 4.1----30.32- 42.3-----
2024-02-21 02:36 pmNNW 2.9 4.1----30.32- 42.1-----
2024-02-21 02:30 pm NW 1.9 4.1----30.33- 41.5-----
2024-02-21 02:24 pmNNW 2.9 4.1----30.33- 41.5-----
2024-02-21 02:18 pmNNW 2.9 6.0----30.34- 41.7-----
2024-02-21 02:12 pm- 0.0 1.9----30.34- 42.3-----
2024-02-21 02:06 pm- 0.0 2.9----30.34- 42.3-----
2024-02-21 02:00 pm NW 1.0 4.1----30.35-0.11 42.1-----
2024-02-21 01:54 pm NW 4.1 5.1----30.35- 40.8-----
2024-02-21 01:48 pmNNW 2.9 5.1----30.35- 41.4-----
2024-02-21 01:42 pmNNW 2.9 4.1----30.35- 41.2-----
2024-02-21 01:36 pm N 1.0 2.9----30.35- 41.5-----
2024-02-21 01:30 pmNNW 1.9 4.1----30.36- 41.2-----
2024-02-21 01:24 pm NW 1.9 2.9----30.36- 41.2-----
2024-02-21 01:18 pm N 1.9 2.9----30.36- 40.6-----
2024-02-21 01:12 pm E 1.9 2.9----30.37- 39.9-----
2024-02-21 01:06 pm E 1.9 5.1----30.37- 40.1-----
2024-02-21 01:00 pm E 4.1 5.1----30.38-0.10 39.7-----
2024-02-21 12:54 pm E 2.9 4.1----30.38- 39.7-----
2024-02-21 12:48 pm E 1.9 4.1----30.39- 39.6-----
2024-02-21 12:42 pm E 1.9 2.9----30.39- 39.0-----
2024-02-21 12:36 pm E 2.9 4.1----30.40- 38.8-----
2024-02-21 12:30 pm E 1.9 2.9----30.40- 38.8-----
2024-02-21 12:24 pm E 1.9 4.1----30.40- 38.3-----
2024-02-21 12:18 pmESE 2.9 4.1----30.41- 38.3-----
2024-02-21 12:12 pmESE 2.9 4.1----30.41- 38.1-----
2024-02-21 12:06 pm E 2.9 4.1----30.42- 37.9-----
2024-02-21 12:00 pmESE 4.1 5.1----30.42-0.06 37.9-----
2024-02-21 11:54 amESE 1.9 4.1----30.42- 37.9-----
2024-02-21 11:48 amESE 2.9 5.1----30.43- 37.6-----
2024-02-21 11:42 amESE 4.1 5.1----30.43- 37.6-----
2024-02-21 11:36 amESE 4.1 6.0----30.44- 37.4-----
2024-02-21 11:30 amESE 5.1 6.0----30.44- 37.6-----
2024-02-21 11:24 amSSE 4.1 7.0----30.45- 38.1-----
2024-02-21 11:18 amESE 4.1 5.1----30.45- 37.4-----
2024-02-21 11:12 amESE 4.1 7.0----30.45- 36.9-----
2024-02-21 11:06 am E 5.1 8.0----30.45- 36.9-----
2024-02-21 11:00 am E 7.0 9.9----30.45-0.02 36.7-----
2024-02-21 10:54 amESE 8.0 8.9----30.46- 36.5-----
2024-02-21 10:48 am E 6.0 11.1----30.46- 36.3-----
2024-02-21 10:42 am E 7.0 11.1----30.46- 36.3-----
2024-02-21 10:36 am E 8.9 11.1----30.46- 36.3-----
2024-02-21 10:30 am E 8.0 9.9----30.46- 36.1-----
2024-02-21 10:24 amESE 8.0 9.9----30.47- 36.3-----
2024-02-21 10:18 amESE 6.0 9.9----30.47- 36.3-----
2024-02-21 10:12 am E 8.0 8.9----30.47- 36.1-----
2024-02-21 10:06 am E 8.0 9.9----30.47- 36.1-----
2024-02-21 10:00 am E 6.0 8.0----30.47+0.01------
2024-02-21 09:54 am E 7.0 8.0----30.48-------
2024-02-21 09:48 am E 6.0 8.9----30.48- 35.6-----
2024-02-21 09:42 am E 7.0 8.0----30.48- 35.6-----
2024-02-21 09:36 am E 8.0 8.9----30.48- 35.6-----
2024-02-21 09:30 amENE 7.0 8.0----30.48- 35.6-----
2024-02-21 09:24 amENE 6.0 8.0----30.48- 35.4-----
2024-02-21 09:18 amENE 6.0 8.9----30.48- 35.1-----
2024-02-21 09:12 am E 6.0 8.0----30.47- 35.1-----
2024-02-21 09:06 amENE 6.0 7.0----30.48- 34.9-----
2024-02-21 09:00 amENE 6.0 7.0----30.48+0.01 34.7-----
2024-02-21 08:54 amENE 5.1 8.0----30.48- 34.2-----
2024-02-21 08:48 amENE 7.0 8.0----30.47- 34.0-----
2024-02-21 08:42 am NE 6.0 8.0----30.47- 33.8-----
2024-02-21 08:36 am NE 7.0 8.0----30.47- 33.3-----
2024-02-21 08:30 am NE 7.0 8.9----30.47- 33.1-----
2024-02-21 08:24 amENE 8.0 8.9----30.47- 32.9-----
2024-02-21 08:18 am NE 7.0 8.0----30.47- 32.4-----
2024-02-21 08:12 am NE 7.0 8.9----30.47- 32.2-----
2024-02-21 08:06 am NE 7.0 8.9----30.47- 32.0-----
2024-02-21 08:00 am NE 7.0 9.9----30.47+0.02 31.8-----
2024-02-21 07:54 am NE 8.0 9.9----30.47- 31.6-----
2024-02-21 07:48 am NE 8.0 11.1----30.47- 31.5-----
2024-02-21 07:42 am NE 8.9 9.9----30.47- 31.5-----
2024-02-21 07:36 am NE 7.0 9.9----30.47- 31.3-----
2024-02-21 07:30 am NE 8.0 9.9----30.47- 30.9-----
2024-02-21 07:24 am NE 8.0 9.9----30.47- 30.9-----
2024-02-21 07:18 am NE 7.0 11.1----30.47- 30.7-----
2024-02-21 07:12 am NE 8.0 9.9----30.46- 30.9-----
2024-02-21 07:06 am NE 8.0 11.1----30.46- 30.7-----
2024-02-21 07:00 am NE 8.0 9.9----30.46+0.01 30.7-----
2024-02-21 06:54 am NE 8.0 9.9----30.46- 30.7-----
2024-02-21 06:48 am NE 8.9 9.9----30.46- 30.7-----
2024-02-21 06:42 am NE 8.0 9.9----30.46- 30.9-----
2024-02-21 06:36 am NE 8.9 12.0----30.46- 30.7-----
2024-02-21 06:30 am NE 8.9 9.9----30.46- 30.7-----
2024-02-21 06:24 am NE 8.0 11.1----30.47- 30.9-----
2024-02-21 06:18 am NE 8.0 9.9----30.47- 30.9-----
2024-02-21 06:12 am NE 8.0 9.9----30.46- 31.1-----
2024-02-21 06:06 am NE 8.0 9.9----30.47- 31.1-----
2024-02-21 06:00 am NE 8.0 8.9----30.47+0.01 31.1-----
2024-02-21 05:54 am NE 7.0 8.9----30.46- 31.1-----
2024-02-21 05:48 am NE 7.0 8.9----30.46- 31.3-----
2024-02-21 05:42 am NE 7.0 8.9----30.46- 31.5-----
2024-02-21 05:36 am NE 7.0 8.0----30.46- 31.3-----
2024-02-21 05:30 am NE 6.0 8.0----30.46- 31.3-----
2024-02-21 05:24 am NE 6.0 8.0----30.46- 31.3-----
2024-02-21 05:18 amENE 7.0 8.0----30.46- 31.3-----
2024-02-21 05:12 am NE 7.0 8.0----30.46- 31.1-----
2024-02-21 05:06 am NE 6.0 8.0----30.46- 31.5-----
2024-02-21 05:00 am NE 6.0 8.0----30.45-0.02 31.3-----
2024-02-21 04:54 am NE 6.0 8.0----30.45- 31.3-----
2024-02-21 04:48 am NE 6.0 7.0----30.45- 31.6-----
2024-02-21 04:42 amENE 6.0 8.0----30.45- 31.5-----
2024-02-21 04:36 amENE 6.0 8.0----30.45- 31.6-----
2024-02-21 04:30 amENE 6.0 6.0----30.45- 31.6-----
2024-02-21 04:24 amENE 5.1 7.0----30.45- 31.5-----
2024-02-21 04:18 amENE 5.1 6.0----30.45- 31.6-----
2024-02-21 04:12 amENE 6.0 7.0----30.45- 31.6-----
2024-02-21 04:06 am NE 5.1 6.0----30.45- 31.8-----
2024-02-21 04:00 am NE 5.1 6.0----30.45-0.02 31.8-----
2024-02-21 03:54 amENE 5.1 6.0----30.45- 31.6-----
2024-02-21 03:48 amENE 5.1 6.0----30.46- 31.6-----
2024-02-21 03:42 amENE 5.1 6.0----30.46- 31.8-----
2024-02-21 03:36 amENE 5.1 6.0----30.46- 31.8-----
2024-02-21 03:30 amENE 5.1 6.0----30.46- 32.0-----
2024-02-21 03:24 am NE 5.1 6.0----30.46- 32.0-----
2024-02-21 03:18 am NE 5.1 6.0----30.46- 32.0-----
2024-02-21 03:12 am NE 5.1 6.0----30.46- 32.2-----
2024-02-21 03:06 am NE 5.1 7.0----30.46- 32.0-----
2024-02-21 03:00 am NE 5.1 6.0----30.46-0.02 31.8-----
2024-02-21 02:54 am NE 5.1 6.0----30.46- 32.2-----
2024-02-21 02:48 am NE 6.0 7.0----30.46- 31.8-----
2024-02-21 02:42 am NE 6.0 6.0----30.46- 32.0-----
2024-02-21 02:36 am NE 5.1 6.0----30.46- 32.2-----
2024-02-21 02:30 am NE 5.1 7.0----30.47- 32.0-----
2024-02-21 02:24 am NE 6.0 7.0----30.47- 32.2-----
2024-02-21 02:18 amENE 5.1 7.0----30.47- 32.4-----
2024-02-21 02:12 am NE 6.0 7.0----30.47- 32.4-----
2024-02-21 02:06 am NE 5.1 7.0----30.47- 32.4-----
2024-02-21 02:00 am NE 6.0 7.0----30.47-0.01------
2024-02-21 01:54 am NE 5.1 6.0----30.47-------
2024-02-21 01:48 am NE 5.1 6.0----30.48- 32.0-----
2024-02-21 01:42 am NE 5.1 6.0----30.48- 32.2-----
2024-02-21 01:36 am NE 5.1 6.0----30.47- 32.0-----
2024-02-21 01:30 am NE 5.1 6.0----30.47- 31.8-----
2024-02-21 01:24 am NE 5.1 5.1----30.47- 31.6-----
2024-02-21 01:18 am NE 4.1 5.1----30.48- 31.8-----
2024-02-21 01:12 am NE 4.1 5.1----30.48- 32.0-----
2024-02-21 01:06 amENE 5.1 5.1----30.48- 32.2-----
2024-02-21 01:00 amENE 5.1 6.0----30.48-0.01 32.2-----
2024-02-21 12:54 amENE 5.1 6.0----30.48- 32.5-----
2024-02-21 12:48 am E 6.0 7.0----30.48- 32.9-----
2024-02-21 12:42 am E 7.0 8.0----30.48- 33.1-----
2024-02-21 12:36 amESE 7.0 8.0----30.48- 33.1-----
2024-02-21 12:30 amESE 7.0 8.9----30.48- 32.9-----
2024-02-21 12:24 amESE 8.0 8.9----30.48- 32.9-----
2024-02-21 12:18 amESE 8.0 9.9----30.48- 32.9-----
2024-02-21 12:12 am E 8.9 11.1----30.48- 32.7-----
2024-02-21 12:06 am E 9.9 11.1----30.48- 32.7-----
2024-02-21 12:00 am E 8.0 9.9----30.48+0.00 32.9-----
2024-02-20 11:54 pm E 8.0 9.9----30.48- 32.5-----